Probability
0 0 0 0 0 0 0 0 0 0 0 1 0 0 0 0 0 0 0 0 0 0 0 0 0 0 0 0 0 0 0 0 0 0 0 0 0 0 0 0 0 0 0
0 0 0 0 0 0 0 0 0 0 0 1 1 0 0 0 0 0 0 0 0 0 0 0 0 0 0 0 0 0 0 0 0 0 0 0 0 0 0 0 0 0 0
0 0 0 0 0 0 0 0 0 0 0 1 1 1 1 0 0 0 0 0 0 0 0 0 0 0 0 0 0 0 0 0 0 0 0 0 0 0 0 0 0 0 0
0 0 0 0 0 1 1 1 0 0 0 0 1 2 2 1 0 0 0 0 0 0 0 0 0 0 0 0 0 0 0 0 0 0 0 0 0 0 0 0 0 0 0
0 0 0 0 0 1 2 1 0 0 0 0 1 1 2 2 1 0 0 0 0 0 0 0 0 0 0 0 0 0 0 0 0 0 0 0 0 0 0 0 0 0 0
0 0 0 0 0 0 1 1 0 0 0 0 1 1 1 1 1 1 1 0 0 0 0 0 0 0 0 0 0 0 0 0 0 0 0 0 0 0 0 0 0 0 0
0 0 0 0 0 0 0 1 1 0 0 0 0 0 0 0 1 1 1 0 0 0 0 0 0 0 0 0 0 0 0 0 0 0 0 0 0 0 0 0 0 0 0
0 0 0 0 0 0 1 2 2 1 0 0 0 0 0 0 0 1 1 0 0 0 0 0 0 0 0 0 0 0 0 0 0 0 0 0 0 0 0 0 0 0 0
0 0 0 0 0 0 1 2 3 2 1 0 0 0 0 0 0 0 0 0 0 0 0 0 0 0 0 0 0 0 0 0 0 0 0 0 0 0 0 0 0 0 0
0 0 0 0 0 0 1 2 3 3 1 0 0 0 0 0 0 0 0 0 0 0 0 0 0 0 0 0 0 0 0 0 0 0 0 0 0 0 0 0 0 0 0
0 0 0 0 0 0 1 2 2 2 1 0 0 0 0 0 0 0 0 0 0 0 0 0 0 0 0 0 0 0 0 0 0 0 0 0 0 0 0 0 0 0 0
0 0 0 0 0 0 0 1 1 1 1 0 0 0 0 0 0 0 0 0 0 0 0 0 0 0 0 0 0 0 0 0 0 0 0 0 0 0 0 0 0 0 0
0 0 0 0 0 0 0 0 0 0 0 0 0 0 0 0 0 0 0 0 0 0 0 0 0 0 0 0 0 0 0 0 0 0 0 0 0 0 0 0 0 0 0
0 0 0 0 0 0 0 0 0 0 0 0 0 0 0 0 0 0 0 0 0 0 0 0 0 0 0 0 0 0 0 0 0 0 0 0 0 0 0 0 0 0 0
0 0 0 0 0 0 0 0 0 0 0 0 0 0 0 0 0 0 0 0 0 0 0 0 0 0 0 0 0 0 0 0 0 0 0 0 0 0 0 0 0 0 0
0 0 0 0 0 0 0 0 0 0 0 0 0 0 0 0 0 0 0 0 0 0 0 0 0 0 0 0 0 0 0 0 0 0 0 0 0 0 0 0 0 0 0
0 0 0 0 0 0 0 0 0 0 0 0 0 0 0 0 0 0 0 0 0 0 0 0 0 0 0 0 0 0 0 0 0 0 0 0 0 0 0 0 0 0 0
0 0 0 0 0 0 0 0 0 0 0 0 0 0 0 0 0 0 0 0 0 0 0 0 0 0 0 0 0 0 0 0 0 0 0 0 0 0 0 0 0 0 0
0 0 0 0 0 0 0 0 0 0 0 0 0 0 0 0 0 0 0 0 0 0 0 0 0 0 0 0 0 0 0 0 0 0 0 0 0 0 0 0 0 0 0
0 0 0 0 0 0 0 0 0 0 0 0 0 0 0 0 0 0 0 0 0 0 0 0 0 0 0 0 0 0 0 0 0 0 0 0 0 0 0 0 0 0 0
0 0 0 0 0 0 0 0 0 0 0 0 0 0 0 0 0 0 0 0 0 0 0 0 0 0 0 0 0 0 0 0 0 0 0 0 0 0 0 0 0 0 0
0 0 0 0 0 0 0 0 0 0 0 0 0 0 0 0 0 0 0 0 0 0 0 0 0 0 0 0 0 0 0 0 0 0 0 0 0 0 0 0 0 0 0
0 0 0 0 0 0 0 0 0 0 0 0 0 0 0 0 0 0 0 0 0 0 0 0 0 0 0 0 0 0 0 0 0 0 0 0 0 0 0 0 0 0 0
0 0 0 0 0 0 0 0 0 0 0 0 0 0 0 0 0 0 0 0 0 0 0 0 0 0 0 0 0 0 0 0 0 0 0 0 0 0 0 0 0 0 0
0 0 0 0 0 0 0 0 0 0 0 0 0 0 0 0 0 0 0 0 0 0 0 0 0 0 0 0 0 0 0 0 0 0 0 0 0 0 0 0 0 0 0
0 0 0 0 0 0 0 0 0 0 0 0 0 0 0 0 0 0 0 0 0 0 0 0 0 0 0 0 0 0 0 0 0 0 0 0 0 0 0 0 0 0 0
Wind_Speed
1 2 2 2 3 3 3 2 2 2 2 2 2 1 2 2 2 2 3 4 4 4 3 3 3 3 3 3 2 2 3 3 3 2 3 3 2 2 2 2 3 4 4
1 1 2 2 2 2 2 2 2 1 1 1 1 1 1 1 1 2 3 3 3 3 3 3 3 3 2 3 3 3 2 3 4 2 2 2 3 2 3 2 3 3 3
3 2 1 1 1 1 1 1 1 2 1 1 2 2 2 1 2 2 3 3 3 3 3 3 3 3 3 2 3 2 1 1 2 3 1 1 2 4 2 2 2 3 3
3 3 2 1 1 1 0 1 1 1 1 1 1 1 1 1 2 2 2 3 3 3 3 3 2 3 2 3 3 2 1 1 1 2 2 1 1 2 4 3 2 3 3
4 3 2 2 2 1 0 0 1 1 2 1 1 1 1 0 1 1 2 2 3 3 3 3 3 3 2 2 3 2 2 1 0 1 1 2 2 2 3 5 4 4 3
4 3 2 2 1 0 1 1 1 1 2 2 2 1 1 1 1 2 2 2 2 2 3 3 3 3 2 2 2 2 2 2 1 1 1 1 1 2 3 4 5 5 4
4 3 2 2 1 0 0 1 1 2 2 2 2 1 1 0 1 1 2 2 2 2 3 3 3 3 3 3 2 2 2 2 2 2 2 2 2 3 3 4 5 6 5
4 3 3 2 2 1 1 1 1 1 1 1 2 1 1 1 1 1 1 2 2 2 3 3 3 3 3 3 3 2 2 2 2 3 2 2 2 2 3 3 4 6 5
4 3 3 3 2 2 1 2 1 0 1 1 1 1 1 1 1 1 1 1 2 2 3 3 3 3 3 3 3 2 3 3 3 3 3 3 2 2 3 3 3 4 6
4 3 3 3 2 2 1 1 1 0 1 1 1 1 1 1 1 1 1 1 2 2 3 3 3 4 4 4 3 3 3 3 3 3 3 3 3 3 3 3 3 4 5
4 4 3 3 2 1 1 1 1 0 1 1 1 1 1 1 1 1 1 1 1 2 2 3 3 3 4 4 3 3 3 3 3 4 4 5 4 3 3 3 3 4 4
3 2 2 2 1 1 0 0 0 0 1 1 1 1 1 1 1 1 1 1 2 2 2 2 3 3 4 4 3 3 4 3 4 4 4 5 5 5 4 4 5 5 5
2 2 2 2 2 1 1 0 0 1 1 1 1 1 1 1 1 2 2 2 2 2 2 2 2 3 3 3 3 3 3 3 4 4 4 5 6 6 5 5 5 5 5
3 3 2 2 2 1 1 0 1 1 1 1 1 1 2 1 2 2 2 2 2 2 2 2 3 3 3 3 3 3 3 3 4 4 5 5 5 6 6 5 6 6 6
3 4 3 2 2 1 1 0 1 1 1 1 1 1 1 1 2 2 2 2 2 2 2 2 3 3 3 2 3 4 3 3 4 4 4 5 6 7 7 6 6 6 5
5 4 4 3 3 2 2 1 1 1 1 0 1 1 1 1 1 1 2 2 2 2 2 2 2 3 3 5 6 5 4 4 4 5 5 5 5 7 9 10 9 8 7
5 5 5 4 4 3 3 2 2 1 0 0 1 1 1 1 1 1 1 2 2 2 2 2 2 3 4 6 7 6 4 4 4 5 5 5 5 5 5 7 9 8 9
5 5 4 4 3 3 2 2 1 1 1 1 1 1 1 1 1 1 1 2 2 2 2 3 3 3 4 6 6 6 4 4 4 5 5 5 6 5 7 6 6 6 6
5 4 4 4 3 3 3 2 1 1 1 1 2 2 2 2 1 1 2 2 2 2 2 3 3 3 4 6 6 6 3 4 5 5 5 5 5 8 10 7 7 7 6
2 3 3 3 3 3 3 3 2 2 3 3 3 2 2 2 2 2 2 2 2 3 3 3 3 4 4 6 6 7 3 4 4 4 4 5 6 9 10 6 6 7 7
2 2 3 3 3 3 3 3 3 4 4 2 2 2 2 2 2 2 2 2 2 2 3 4 4 4 4 6 7 7 3 4 4 4 4 4 8 10 10 8 5 7 8
2 2 3 3 3 3 4 4 5 4 2 2 2 2 2 2 2 2 2 2 2 2 3 4 4 3 4 5 6 8 7 6 4 4 4 4 8 10 9 7 8 10 8
3 3 3 3 3 3 4 5 5 2 2 2 3 3 2 2 2 2 2 2 2 2 3 3 4 4 3 5 7 8 8 8 5 4 6 7 8 8 7 8 9 7 4
4 3 3 4 4 4 4 5 3 2 3 3 3 3 2 3 2 2 2 2 3 3 3 3 4 4 4 4 3 3 4 5 5 4 5 6 7 6 6 6 5 4 4
3 3 4 5 6 4 5 4 3 3 4 4 4 3 3 3 3 3 3 4 4 5 4 4 4 4 5 6 6 4 3 3 3 3 2 3 3 3 3 3 3 3 3
4 4 5 6 6 5 5 5 4 4 5 4 4 3 3 3 3 3 4 6 6 8 9 8 7 6 8 9 8 8 7 7 5 2 2 3 3 3 4 4 4 4 4
Wind_Direction
170 88 73 77 74 61 52 42 47 47 48 31 18 7 4 8 17 19 17 14 11 11 13 3 357 4 12 358 352 348 4 2 350 351 334 326 338 25 12 16 15 8 3
117 78 60 56 67 70 51 42 30 28 37 9 350 347 355 24 17 3 13 13 9 9 15 10 2 356 359 8 2 8 12 7 12 0 333 325 324 350 335 351 2 352 355
176 176 141 84 70 69 57 31 15 31 25 23 44 33 39 19 9 3 7 6 4 7 9 10 0 353 3 3 357 5 27 0 360 15 15 345 293 316 308 339 343 344 339
191 189 187 173 193 214 91 57 41 47 38 53 86 68 1 316 322 342 352 358 3 2 359 359 1 356 357 4 356 4 346 42 346 336 352 330 287 288 301 305 322 327 319
199 197 201 200 207 204 154 74 54 52 45 47 66 94 40 343 353 1 358 358 354 356 357 356 360 353 352 357 358 357 358 350 314 309 308 308 313 286 271 290 309 311 296
199 203 205 194 195 180 79 59 52 36 36 38 45 68 49 357 4 349 341 341 340 349 357 356 353 347 350 346 337 348 343 329 315 292 302 295 286 284 278 281 296 298 296
197 201 207 201 202 184 88 76 66 34 31 39 39 29 18 351 291 313 316 324 331 339 339 343 344 344 342 340 338 341 330 317 306 287 275 272 270 282 284 284 293 294 293
202 202 206 196 193 201 168 122 97 41 24 32 19 14 10 335 329 319 308 305 311 323 324 333 336 339 341 339 335 333 322 323 308 308 295 284 290 290 285 284 290 297 292
208 202 196 193 194 199 199 179 161 82 1 7 3 5 10 353 327 327 338 331 337 336 334 331 333 340 341 334 329 326 327 326 321 314 307 298 293 292 293 290 284 280 288
208 207 205 201 201 200 202 159 147 162 329 348 335 348 350 333 326 340 342 339 340 342 342 348 347 346 341 336 332 329 329 328 324 322 316 307 300 296 296 291 287 276 274
211 207 202 193 187 181 174 161 155 73 4 332 324 340 339 344 346 330 324 325 336 345 348 351 352 352 348 344 338 334 326 323 326 326 322 316 311 306 302 298 291 284 280
205 193 185 168 169 182 177 203 268 335 310 318 329 329 342 347 345 338 333 341 343 348 346 351 352 345 344 342 339 339 333 331 332 329 329 325 321 315 309 302 295 289 283
205 191 184 183 188 198 207 218 352 337 341 358 353 342 341 337 326 325 341 357 356 355 350 349 348 342 339 334 329 328 330 329 323 322 322 318 314 309 306 302 298 295 296
216 211 209 208 207 201 203 242 335 354 349 0 352 330 320 324 332 343 355 0 360 357 349 346 343 338 331 328 326 328 327 319 318 317 311 310 307 303 304 303 301 301 301
230 221 219 220 213 208 226 272 319 342 338 345 354 331 343 3 8 4 0 0 357 350 345 342 339 336 329 326 325 319 315 317 319 315 310 309 306 308 309 306 303 302 299
235 224 218 218 216 216 219 230 253 285 285 267 313 333 0 1 353 350 354 352 352 346 348 336 325 326 322 322 321 320 317 314 313 313 314 309 303 309 313 312 314 314 306
234 221 217 215 217 209 203 210 220 226 220 274 312 322 325 323 323 338 346 333 332 336 335 323 319 319 316 319 320 325 323 315 310 308 308 307 309 305 306 315 319 318 317
222 217 215 211 207 205 202 201 189 181 192 256 284 296 293 287 304 318 309 314 315 307 307 310 315 317 314 316 320 328 325 310 304 301 299 300 306 312 312 311 314 311 313
216 207 203 200 195 198 196 181 190 190 204 243 258 269 263 264 279 283 292 298 302 304 307 312 308 302 303 311 320 326 314 305 304 301 301 301 302 310 313 315 313 313 316
210 199 185 181 191 203 180 179 210 216 234 245 252 259 252 245 251 265 279 294 292 289 296 298 295 289 292 305 315 322 310 306 309 308 305 308 312 313 315 315 313 310 314
208 192 183 192 206 194 176 199 219 233 244 247 254 262 254 250 251 266 284 293 287 295 290 288 292 289 287 296 308 315 312 303 307 307 310 315 323 323 322 324 321 314 322
221 200 199 216 210 183 183 212 233 246 247 239 247 253 257 258 260 261 272 282 275 281 287 290 294 296 297 297 302 309 310 312 302 302 309 316 323 325 329 333 334 335 338
226 213 207 223 221 199 195 219 239 230 219 231 241 247 252 257 255 248 253 267 270 268 276 280 285 292 299 296 300 302 306 310 308 303 311 320 325 329 334 338 338 342 338
228 224 211 223 236 224 219 226 228 201 201 225 238 237 237 250 254 250 243 242 247 258 264 269 276 285 288 287 292 291 295 297 300 307 314 316 321 326 330 333 336 335 325
240 223 220 231 239 232 231 230 212 191 207 226 232 236 236 238 244 246 241 243 243 245 252 252 254 262 271 276 287 290 284 285 288 313 325 329 327 326 326 327 325 323 322
235 233 236 240 243 235 238 231 209 197 202 222 229 230 232 236 241 252 271 264 263 272 271 271 274 275 281 295 292 291 299 303 305 321 314 308 309 307 310 314 318 318 317